FW1466 Weather Reports


Display with metric or nautical units.
time (UTC)temp
F
wind
direction
speed
MPH
gust
MPH
rain 1hr
in
rain 24hr
in
rain mn
in
humidity
%
barometer
mb
20260509014542 59 13 0.0 0.0 0.00 0.00 0.00 65 1005.9
20260509013054 60 13 0.0 0.0 0.00 0.00 0.00 64 1006.0
20260509011541 61 13 0.0 0.0 0.00 0.00 0.00 63 1006.0
20260509010042 62 13 0.0 0.0 0.00 0.00 0.00 62 1006.0
20260509004601 63 13 0.0 0.0 0.00 0.00 0.00 60 1005.9
20260509003044 64 14 0.0 3.0 0.00 0.00 0.00 60 1006.0
20260509001537 64 325 0.0 2.0 0.00 0.00 0.00 59 1006.1
20260509000036 64 330 0.0 3.0 0.00 0.00 0.00 59 1006.0
20260508234537 65 131 0.0 3.0 0.00 0.00 0.00 57 1006.1
20260508233036 66 339 0.0 3.0 0.00 0.00 0.00 56 1006.1
20260508231535 66 90 0.0 3.0 0.00 0.00 0.00 53 1006.0
20260508230049 66 159 0.0 2.0 0.00 0.01 0.00 54 1006.2
20260508224534 66 252 0.0 4.0 0.00 0.01 0.00 54 1006.3
20260508223034 66 194 0.0 3.0 0.00 0.01 0.00 54 1006.4
20260508221531 66 168 0.0 2.0 0.00 0.01 0.00 52 1006.4
20260508220030 66 169 0.0 3.0 0.00 0.05 0.00 54 1006.6
20260508214529 66 167 0.0 6.0 0.00 0.05 0.00 54 1006.6
20260508213026 65 171 0.0 3.0 0.00 0.05 0.00 56 1006.9
20260508211530 65 175 0.0 4.0 0.00 0.05 0.00 54 1007.0
20260508210024 65 121 0.0 2.0 0.00 0.05 0.00 57 1007.0
20260508204524 65 143 2.0 5.0 0.00 0.05 0.00 57 1007.0
20260508203022 66 94 0.0 7.0 0.00 0.05 0.00 54 1007.2
20260508201520 68 209 1.0 8.0 0.00 0.05 0.00 51 1007.5
20260508200028 68 150 0.0 9.0 0.00 0.05 0.00 51 1007.5
20260508194517 67 86 1.0 6.0 0.00 0.05 0.00 56 1007.9
20260508193014 68 135 1.0 6.0 0.00 0.05 0.00 56 1008.0
20260508191514 67 148 2.0 5.0 0.00 0.05 0.00 51 1008.2
20260508190009 67 266 0.0 4.0 0.00 0.05 0.00 49 1008.3
20260508184506 66 168 1.0 3.0 0.00 0.05 0.00 58 1008.6
20260508183006 66 149 0.0 5.0 0.00 0.05 0.00 52 1008.9
20260508181503 66 111 0.0 4.0 0.00 0.05 0.00 57 1009.1
20260508180059 65 171 2.0 7.0 0.00 0.05 0.00 57 1009.3
20260508174556 65 182 3.0 5.0 0.00 0.05 0.00 62 1009.3
20260508173056 65 151 2.0 7.0 0.00 0.05 0.00 66 1009.5
20260508171551 63 117 0.0 6.0 0.00 0.05 0.00 69 1009.9
20260508170048 63 127 2.0 5.0 0.00 0.05 0.00 68 1010.2
20260508164559 63 115 1.0 6.0 0.00 0.05 0.00 68 1010.3
20260508163144 62 28 1.0 4.0 0.00 0.05 0.00 70 1010.5
20260508161547 61 167 1.0 3.0 0.00 0.05 0.00 74 1010.7
20260508160040 62 148 1.0 3.0 0.00 0.05 0.00 71 1010.8
20260508154542 62 155 1.0 6.0 0.00 0.05 0.00 71 1010.8
20260508153034 61 180 2.0 6.0 0.00 0.05 0.00 74 1010.9
20260508151533 60 149 1.0 5.0 0.00 0.05 0.00 75 1011.0
20260508150033 60 119 1.0 4.0 0.00 0.05 0.00 74 1011.1
20260508144543 58 105 0.0 4.0 0.00 0.05 0.00 77 1011.2
20260508143022 57 132 0.0 4.0 0.00 0.05 0.00 79 1011.4
20260508141517 56 138 0.0 2.0 0.00 0.05 0.00 80 1011.4
20260508140013 54 133 0.0 2.0 0.00 0.05 0.00 81 1011.5
20260508134509 52 138 0.0 3.0 0.00 0.05 0.00 82 1011.5
20260508133005 51 138 0.0 3.0 0.00 0.05 0.00 82 1011.4
20260508131502 50 144 1.0 4.0 0.00 0.05 0.00 83 1011.6
20260508130059 49 144 0.0 2.0 0.00 0.05 0.00 87 1011.6
20260508124558 48 144 0.0 4.0 0.00 0.05 0.00 88 1011.7
20260508123101 47 143 0.0 3.0 0.00 0.05 0.00 91 1011.5
20260508121549 46 323 0.0 0.0 0.00 0.05 0.00 93 1011.5
20260508120047 45 323 0.0 1.0 0.00 0.05 0.00 94 1011.5
20260508114544 44 323 0.0 2.0 0.00 0.05 0.00 94 1011.1
20260508113058 44 323 0.0 0.0 0.00 0.05 0.00 94 1011.4
20260508111544 43 323 0.0 0.0 0.00 0.05 0.00 94 1011.3
20260508110051 43 323 0.0 0.0 0.00 0.05 0.00 94 1011.2
20260508104540 42 323 0.0 0.0 0.00 0.05 0.00 94 1011.0
20260508103039 42 323 0.0 0.0 0.00 0.05 0.00 94 1011.2
20260508101537 42 323 0.0 0.0 0.00 0.05 0.00 94 1011.5
20260508100036 41 323 0.0 1.0 0.00 0.05 0.00 94 1011.6
20260508094535 41 323 0.0 0.0 0.00 0.05 0.00 93 1011.5
20260508093036 41 323 0.0 0.0 0.00 0.05 0.00 93 1011.6
20260508091532 41 323 0.0 0.0 0.00 0.05 0.00 93 1011.8
20260508090031 41 323 0.0 0.0 0.00 0.05 0.00 93 1011.7
20260508084530 42 323 0.0 0.0 0.00 0.05 0.00 92 1011.9
20260508083030 42 323 0.0 2.0 0.00 0.05 0.00 92 1011.7
20260508081526 42 323 0.0 0.0 0.00 0.05 0.00 91 1012.1
20260508080023 43 323 0.0 0.0 0.00 0.05 0.00 90 1011.9
20260508074522 44 323 0.0 0.0 0.00 0.05 0.00 90 1011.9
20260508073021 44 323 0.0 0.0 0.00 0.05 0.00 90 1012.0
20260508071521 45 323 0.0 0.0 0.00 0.05 0.00 90 1012.3
20260508070018 45 323 0.0 0.0 0.00 0.05 0.00 90 1012.3
20260508064516 45 323 0.0 0.0 0.00 0.05 0.00 90 1012.3
20260508063015 45 323 0.0 0.0 0.00 0.05 0.00 89 1012.4
20260508061516 45 323 0.0 0.0 0.00 0.05 0.00 89 1012.3
20260508060011 45 323 0.0 0.0 0.00 0.05 0.00 88 1012.3
20260508054510 45 323 0.0 0.0 0.00 0.05 0.00 87 1012.4
20260508053010 46 323 0.0 0.0 0.00 0.05 0.00 86 1012.1
20260508051504 47 323 0.0 0.0 0.00 0.05 0.00 85 1012.0
20260508050004 47 323 0.0 0.0 0.00 0.05 0.05 83 1011.9
20260508044503 48 323 0.0 0.0 0.00 0.05 0.05 82 1012.1
20260508043001 49 323 0.0 0.0 0.00 0.05 0.05 79 1012.0
20260508041502 50 323 0.0 0.0 0.00 0.05 0.05 78 1011.9
20260508040000 50 323 0.0 1.0 0.00 0.05 0.05 76 1011.9
20260508034604 50 323 0.0 1.0 0.00 0.05 0.05 76 1011.6
20260508033101 50 323 0.0 1.0 0.00 0.05 0.05 76 1011.8
20260508031601 50 322 0.0 0.0 0.00 0.05 0.05 74 1011.7
20260508030059 50 322 0.0 3.0 0.00 0.05 0.05 74 1011.6
20260508024606 49 322 0.0 3.0 0.00 0.05 0.05 75 1011.4
20260508023057 49 319 0.0 0.0 0.00 0.05 0.05 75 1011.2
20260508021557 50 319 0.0 0.0 0.00 0.05 0.05 73 1011.0
20260508020057 51 319 0.0 0.0 0.00 0.05 0.05 72 1010.9